Simultaneous Nadir Overpasses (SNOs) Predictions

Prediction of SNOs between AQUA and METOP-C Satellite Orbit:

Table of predicted SNOs for the next 14.0 days since TLE Epoch: 5/22/2020
Index Date (AQUA) Time (AQUA) Lat,Lon (AQUA) SZA (AQUA ) Date (METOP-C) Time (METOP-C) Lat,Lon (METOP-C) SZA (METOP-C ) Distance(km) Time Diff (sec)
1 05/23/2020 18:11:36 73.73, -98.41 52.93 05/23/2020 18:10:41 73.74, -98.33 52.95 3.01 55
2 05/23/2020 19:01:03 -73.80, 69.08 127.01 05/23/2020 19:01:22 -73.81, 69.16 127.00 3.13 19
3 05/23/2020 19:50:43 74.45,-124.79 53.69 05/23/2020 19:51:49 74.41,-122.01 53.57 83.07 66
4 05/26/2020 13:45:51 73.73, -31.98 52.44 05/26/2020 13:45:04 73.72, -31.96 52.44 1.03 47
5 05/26/2020 14:35:18 -73.79, 135.53 127.51 05/26/2020 14:35:45 -73.80, 135.55 127.50 1.28 27
6 05/29/2020 09:20:06 73.74, 34.44 52.00 05/29/2020 09:19:26 73.76, 34.52 52.02 3.21 40
7 05/29/2020 10:09:33 -73.79,-158.04 127.95 05/29/2020 10:10:08 -73.79,-158.07 127.96 1.17 35
8 06/01/2020 04:54:20 73.75, 100.85 51.62 06/01/2020 04:53:48 73.74, 100.88 51.61 2.13 32
9 06/01/2020 05:43:47 -73.80, -91.61 128.34 06/01/2020 05:44:29 -73.83, -91.58 128.32 3.14 42
10 06/04/2020 00:28:34 73.72, 167.36 51.24 06/04/2020 00:28:11 73.72, 167.24 51.25 3.60 23
11 06/04/2020 01:18:02 -73.81, -25.20 128.67 06/04/2020 01:18:52 -73.81, -25.22 128.68 0.44 50




NCC Satellite Simultaneous Nadir Overpasses (SNOs) Prediction Service
